Hourly Data Report for September 29, 2017

All times are specified in Local Standard Time (LST). Add 1 hour to adjust for Daylight Saving Time where and when it is observed.

TORONTO INTL A
ONTARIO

43°40'36.000" N
79°37'50.000" W
173.40 m
6158731
71624
YYZ

Download Data

Hourly Data (September 2017)
Hourly Data Report for September 29, 2017
Temp Definition
°C
Dew Point Temp Definition
°C
Rel Hum Definition
%
Wind Dir Definition
10's deg

Wind Spd Definition
km/h
Visibility Definition
km
Stn Press Definition
kPa
Hmdx Definition


Wind Chill Definition


Weather Definition


TIME
00:00 Legend Double Dagger 9.6 5.2 74 31 5 24.1 99.81     LegendNANA
01:00 Legend Double Dagger 9.8 5.5 75 36 3 24.1 99.82     Mainly Clear
02:00 Legend Double Dagger 9.1 5.0 75 4 8 24.1 99.80     LegendNANA
03:00 Legend Double Dagger 9.2 3.5 67 5 7 24.1 99.75     LegendNANA
04:00 Legend Double Dagger 9.2 3.1 65 7 4 24.1 99.72     Mainly Clear
05:00 Legend Double Dagger 9.9 4.1 67 36 1 24.1 99.72     LegendNANA
06:00 Legend Double Dagger 9.9 3.0 62 11 9 24.1 99.67     LegendNANA
07:00 Legend Double Dagger 10.9 3.7 61 10 12 24.1 99.65     Mostly Cloudy
08:00 Legend Double Dagger 12.8 6.5 65 13 7 19.3 99.62     Rain
09:00 Legend Double Dagger 12.9 9.8 81 15 11 19.3 99.58     Rain
10:00 Legend Double Dagger 13.0 9.6 80 15 16 16.1 99.48     Rain
11:00 Legend Double Dagger 13.0 11.7 92 17 10 24.1 99.39     LegendNANA
12:00 Legend Double Dagger 15.2 11.6 79 22 13 24.1 99.30     LegendNANA
13:00 Legend Double Dagger 17.3 11.7 69 25 12 8.1 99.19     Thunderstorms,Rain Showers
14:00 Legend Double Dagger 16.6 11.8 73 27 27 24.1 99.14     LegendNANA
15:00 Legend Double Dagger 17.1 8.3 56 28 40 24.1 99.14     LegendNANA
16:00 Legend Double Dagger 15.0 7.4 60 29 34 24.1 99.22     Mostly Cloudy
17:00 Legend Double Dagger 12.7 5.8 62 27 49 24.1 99.20     LegendNANA
18:00 Legend Double Dagger 11.7 6.8 72 28 47 24.1 99.15     LegendNANA
19:00 Legend Double Dagger 11.6 8.0 78 33 49 24.1 99.35     Mostly Cloudy
20:00 Legend Double Dagger 10.1 7.5 84 35 45 16.1 99.64     Rain
21:00 Legend Double Dagger 9.7 7.5 86 36 36 24.1 99.84     Rain
22:00 Legend Double Dagger 8.9 7.1 88 35 31 24.1 99.96     Cloudy
23:00 Legend Double Dagger 8.9 6.4 84 35 26 24.1 100.09     LegendNANA

Notes on Data Quality.

Legend

  • E = Estimated
  • M = Missing
  • NA = Not Available
  • ‡ = Partner data that is not subject to review by the National Climate Archives
Date modified: